QPF
0.00 0.00 0.06 0.09 0.10 0.09 0.27 0.11 0.04 0.03 0.01 0.00 0.01 0.01 0.10 0.04 0.05 0.01 0.00 0.00 0.00 0.00 0.00 0.00 0.00 0.02 0.00 0.01 0.00 0.00 0.00 0.00 0.00 0.00 0.00 0.00 0.00 0.00 0.00 0.00 0.00 0.00 0.00 0.00 0.00 0.00 0.00 0.00 0.00
0.00 0.04 0.16 0.16 0.53 0.30 0.08 0.02 0.01 0.02 0.00 0.00 0.00 0.01 0.00 0.00 0.00 0.01 0.00 0.00 0.00 0.00 0.00 0.00 0.01 0.01 0.01 0.02 0.00 0.00 0.00 0.00 0.00 0.00 0.01 0.00 0.00 0.00 0.00 0.00 0.00 0.00 0.00 0.00 0.00 0.00 0.00 0.00 0.00
0.00 0.04 0.12 0.17 0.24 0.17 0.04 0.03 0.02 0.00 0.00 0.00 0.00 0.00 0.00 0.00 0.00 0.00 0.00 0.00 0.00 0.00 0.00 0.00 0.00 0.01 0.03 0.02 0.00 0.00 0.00 0.00 0.00 0.00 0.00 0.00 0.00 0.00 0.00 0.00 0.00 0.00 0.00 0.00 0.00 0.00 0.00 0.00 0.00
0.00 0.03 0.03 0.10 0.11 0.03 0.03 0.07 0.00 0.00 0.00 0.00 0.00 0.00 0.00 0.00 0.00 0.00 0.00 0.00 0.00 0.00 0.00 0.00 0.00 0.00 0.01 0.00 0.00 0.00 0.00 0.00 0.00 0.00 0.00 0.00 0.00 0.00 0.00 0.00 0.00 0.00 0.00 0.00 0.00 0.00 0.00 0.00 0.00
0.03 0.11 0.31 0.35 0.06 0.02 0.03 0.00 0.00 0.00 0.01 0.01 0.00 0.00 0.00 0.00 0.00 0.00 0.00 0.00 0.00 0.00 0.01 0.00 0.01 0.01 0.00 0.00 0.00 0.00 0.00 0.00 0.00 0.00 0.00 0.00 0.00 0.00 0.00 0.00 0.00 0.00 0.00 0.00 0.00 0.00 0.00 0.00 0.00
0.13 0.72 0.27 0.09 0.01 0.01 0.00 0.00 0.00 0.02 0.00 0.00 0.00 0.00 0.01 0.00 0.00 0.00 0.01 0.00 0.02 0.00 0.00 0.00 0.00 0.00 0.00 0.00 0.00 0.00 0.00 0.00 0.00 0.00 0.00 0.00 0.00 0.00 0.00 0.00 0.00 0.00 0.00 0.00 0.00 0.00 0.00 0.00 0.00
0.10 1.65 0.23 0.02 0.00 0.00 0.00 0.01 0.02 0.00 0.00 0.00 0.00 0.00 0.01 0.01 0.00 0.00 0.00 0.01 0.01 0.00 0.00 0.00 0.00 0.00 0.00 0.00 0.00 0.00 0.00 0.00 0.00 0.00 0.00 0.00 0.00 0.00 0.00 0.00 0.00 0.00 0.00 0.00 0.00 0.00 0.00 0.00 0.00
0.01 0.71 0.44 0.11 0.00 0.00 0.00 0.00 0.00 0.00 0.00 0.00 0.00 0.00 0.01 0.00 0.00 0.00 0.01 0.01 0.00 0.00 0.00 0.00 0.00 0.00 0.00 0.00 0.00 0.00 0.00 0.00 0.00 0.00 0.00 0.01 0.01 0.00 0.00 0.00 0.00 0.00 0.00 0.00 0.00 0.00 0.00 0.00 0.00
0.00 0.16 0.06 0.01 0.00 0.00 0.00 0.00 0.00 0.00 0.00 0.00 0.00 0.00 0.00 0.00 0.00 0.00 0.00 0.00 0.00 0.00 0.00 0.00 0.00 0.00 0.00 0.00 0.00 0.00 0.00 0.00 0.00 0.02 0.06 0.15 0.13 0.07 0.01 0.00 0.00 0.00 0.00 0.00 0.00 0.00 0.00 0.00 0.00
0.00 0.19 0.05 0.00 0.00 0.00 0.00 0.00 0.00 0.00 0.00 0.00 0.00 0.00 0.00 0.00 0.00 0.00 0.00 0.00 0.00 0.00 0.00 0.00 0.00 0.00 0.00 0.00 0.00 0.00 0.00 0.00 0.00 0.05 0.37 0.42 0.14 0.07 0.01 0.00 0.00 0.00 0.00 0.00 0.00 0.00 0.04 0.02 0.00
0.00 0.12 0.04 0.00 0.00 0.00 0.00 0.00 0.00 0.00 0.00 0.00 0.00 0.00 0.00 0.00 0.00 0.00 0.00 0.00 0.00 0.00 0.00 0.00 0.00 0.00 0.00 0.00 0.00 0.00 0.00 0.00 0.00 0.07 0.60 0.62 0.28 0.03 0.00 0.00 0.00 0.00 0.01 0.01 0.25 0.11 0.02 0.01 0.00
0.00 0.02 0.00 0.00 0.00 0.00 0.01 0.01 0.00 0.00 0.00 0.00 0.00 0.00 0.00 0.00 0.00 0.00 0.00 0.00 0.00 0.00 0.00 0.00 0.00 0.00 0.00 0.00 0.00 0.00 0.00 0.00 0.00 0.01 0.09 0.21 0.22 0.17 0.21 0.03 0.01 0.04 0.03 0.12 0.09 0.04 0.01 0.00 0.00
0.00 0.00 0.00 0.00 0.00 0.00 0.01 0.04 0.00 0.00 0.00 0.00 0.00 0.00 0.00 0.00 0.00 0.00 0.00 0.00 0.00 0.00 0.00 0.00 0.00 0.00 0.00 0.00 0.00 0.00 0.00 0.00 0.00 0.00 0.00 0.11 0.10 0.05 0.03 0.02 0.03 0.01 0.02 0.07 0.01 0.00 0.00 0.00 0.00
0.00 0.00 0.00 0.00 0.00 0.00 0.00 0.01 0.01 0.00 0.00 0.00 0.00 0.00 0.00 0.00 0.00 0.00 0.00 0.00 0.00 0.00 0.00 0.00 0.00 0.00 0.00 0.00 0.00 0.00 0.00 0.00 0.00 0.00 0.00 0.00 0.01 0.02 0.01 0.01 0.00 0.00 0.00 0.06 0.02 0.00 0.00 0.01 0.00
0.00 0.00 0.00 0.00 0.00 0.00 0.00 0.00 0.00 0.00 0.00 0.00 0.00 0.00 0.00 0.00 0.00 0.00 0.00 0.00 0.00 0.00 0.00 0.00 0.00 0.00 0.00 0.00 0.00 0.00 0.00 0.00 0.00 0.00 0.00 0.00 0.00 0.01 0.01 0.01 0.01 0.00 0.01 0.00 0.00 0.01 0.01 0.00 0.00
0.00 0.00 0.00 0.00 0.00 0.00 0.00 0.00 0.00 0.00 0.00 0.00 0.00 0.00 0.00 0.00 0.00 0.00 0.00 0.00 0.00 0.00 0.00 0.00 0.00 0.00 0.00 0.00 0.00 0.00 0.00 0.00 0.00 0.00 0.00 0.00 0.00 0.00 0.01 0.02 0.03 0.02 0.00 0.00 0.00 0.00 0.00 0.00 0.00
0.00 0.00 0.00 0.00 0.00 0.00 0.00 0.00 0.00 0.00 0.00 0.00 0.00 0.00 0.00 0.00 0.00 0.00 0.00 0.00 0.00 0.00 0.00 0.00 0.00 0.00 0.00 0.00 0.00 0.00 0.00 0.00 0.00 0.00 0.00 0.00 0.00 0.00 0.02 0.08 0.10 0.03 0.00 0.00 0.00 0.00 0.00 0.00 0.00
0.00 0.00 0.00 0.00 0.00 0.00 0.00 0.00 0.00 0.00 0.00 0.00 0.00 0.00 0.00 0.00 0.00 0.00 0.00 0.00 0.00 0.00 0.00 0.00 0.00 0.00 0.00 0.00 0.00 0.00 0.00 0.00 0.00 0.00 0.00 0.00 0.00 0.00 0.02 0.05 0.02 0.01 0.00 0.00 0.00 0.00 0.00 0.00 0.00
0.00 0.00 0.00 0.00 0.00 0.00 0.00 0.00 0.00 0.00 0.01 0.00 0.00 0.00 0.00 0.00 0.00 0.00 0.00 0.00 0.00 0.00 0.00 0.00 0.00 0.00 0.00 0.00 0.00 0.00 0.00 0.00 0.00 0.00 0.00 0.00 0.00 0.00 0.02 0.10 0.06 0.03 0.01 0.01 0.00 0.00 0.00 0.00 0.00
0.00 0.00 0.00 0.00 0.00 0.00 0.00 0.00 0.00 0.00 0.00 0.00 0.00 0.00 0.00 0.00 0.00 0.00 0.00 0.00 0.00 0.00 0.00 0.00 0.00 0.00 0.00 0.00 0.00 0.00 0.00 0.00 0.00 0.00 0.00 0.00 0.00 0.01 0.02 0.07 0.03 0.02 0.01 0.02 0.01 0.00 0.01 0.00 0.00
0.00 0.00 0.00 0.00 0.00 0.00 0.00 0.00 0.00 0.00 0.00 0.00 0.00 0.00 0.00 0.00 0.00 0.00 0.00 0.00 0.00 0.00 0.00 0.00 0.00 0.00 0.00 0.00 0.00 0.00 0.00 0.00 0.00 0.00 0.00 0.00 0.00 0.00 0.06 0.07 0.03 0.05 0.02 0.11 0.06 0.00 0.00 0.00 0.00
0.00 0.00 0.00 0.00 0.00 0.00 0.00 0.00 0.00 0.00 0.00 0.00 0.00 0.00 0.00 0.00 0.00 0.00 0.00 0.00 0.00 0.00 0.00 0.00 0.00 0.00 0.00 0.00 0.00 0.00 0.00 0.00 0.00 0.00 0.00 0.00 0.00 0.00 0.01 0.01 0.01 0.02 0.02 0.04 0.04 0.00 0.00 0.00 0.00
0.00 0.00 0.00 0.00 0.00 0.00 0.00 0.00 0.00 0.00 0.00 0.00 0.00 0.00 0.00 0.00 0.00 0.00 0.00 0.00 0.00 0.00 0.00 0.00 0.00 0.00 0.00 0.00 0.00 0.00 0.00 0.00 0.00 0.00 0.00 0.00 0.01 0.01 0.00 0.00 0.00 0.01 0.01 0.05 0.02 0.01 0.00 0.00 0.00
0.00 0.00 0.00 0.00 0.00 0.00 0.00 0.00 0.00 0.00 0.00 0.00 0.00 0.00 0.00 0.00 0.00 0.00 0.00 0.00 0.00 0.00 0.00 0.00 0.00 0.00 0.00 0.00 0.00 0.00 0.00 0.00 0.00 0.00 0.00 0.00 0.00 0.00 0.00 0.01 0.01 0.01 0.01 0.02 0.03 0.02 0.00 0.00 0.00
0.00 0.00 0.00 0.00 0.00 0.00 0.00 0.00 0.00 0.00 0.00 0.00 0.00 0.00 0.00 0.00 0.00 0.00 0.00 0.00 0.00 0.00 0.00 0.00 0.00 0.00 0.00 0.00 0.00 0.00 0.00 0.00 0.00 0.00 0.00 0.00 0.00 0.00 0.00 0.00 0.02 0.01 0.01 0.01 0.00 0.01 0.00 0.00 0.00
0.00 0.00 0.00 0.00 0.00 0.00 0.00 0.00 0.00 0.00 0.00 0.00 0.00 0.00 0.00 0.00 0.00 0.00 0.00 0.00 0.00 0.00 0.00 0.00 0.00 0.00 0.00 0.00 0.00 0.00 0.00 0.00 0.00 0.00 0.00 0.00 0.00 0.00 0.00 0.00 0.00 0.00 0.00 0.00 0.00 0.00 0.00 0.00 0.00
0.00 0.00 0.00 0.00 0.00 0.00 0.00 0.00 0.00 0.00 0.00 0.00 0.00 0.00 0.00 0.00 0.00 0.00 0.00 0.00 0.00 0.00 0.00 0.00 0.00 0.00 0.00 0.00 0.00 0.00 0.00 0.00 0.00 0.00 0.00 0.00 0.00 0.00 0.00 0.00 0.00 0.00 0.00 0.00 0.00 0.00 0.00 0.00 0.00
0.00 0.00 0.00 0.00 0.00 0.00 0.00 0.00 0.00 0.00 0.00 0.00 0.00 0.00 0.00 0.00 0.00 0.00 0.00 0.00 0.00 0.00 0.00 0.00 0.00 0.00 0.00 0.00 0.00 0.00 0.00 0.00 0.00 0.00 0.00 0.00 0.00 0.00 0.00 0.00 0.00 0.00 0.00 0.00 0.00 0.00 0.00 0.00 0.00
0.00 0.00 0.00 0.00 0.00 0.00 0.00 0.00 0.00 0.00 0.00 0.00 0.00 0.00 0.00 0.00 0.00 0.00 0.00 0.00 0.00 0.00 0.00 0.00 0.00 0.00 0.00 0.00 0.00 0.00 0.00 0.00 0.00 0.00 0.00 0.00 0.00 0.00 0.00 0.00 0.00 0.00 0.00 0.00 0.00 0.00 0.00 0.00 0.00
0.00 0.00 0.00 0.00 0.00 0.00 0.00 0.00 0.00 0.00 0.00 0.00 0.00 0.00 0.00 0.00 0.00 0.00 0.00 0.00 0.00 0.00 0.00 0.00 0.00 0.00 0.00 0.00 0.00 0.00 0.00 0.00 0.00 0.00 0.00 0.00 0.00 0.00 0.00 0.00 0.00 0.00 0.00 0.00 0.00 0.00 0.00 0.00 0.00
MSLP
1009.29 1009.37 1009.52 1009.70 1009.65 1008.16 1006.33 1005.40 1004.76 1003.43 1002.42 1002.17 1003.37 1004.63 1005.80 1006.37 1007.39 1009.70 1010.91 1011.75 1012.52 1013.25 1013.51 1013.83 1014.18 1014.46 1014.66 1014.93 1015.20 1015.37 1015.44 1015.62 1015.70 1015.87 1015.93 1016.00 1016.11 1016.16 1016.12 1016.24 1016.38 1016.50 1016.66 1016.83 1016.99 1017.11 1017.23 1017.31 1017.37
1008.48 1008.96 1009.38 1008.95 1007.87 1006.81 1005.21 1003.66 1003.02 1001.88 1001.63 1002.26 1003.47 1004.47 1005.39 1007.20 1007.61 1009.70 1010.86 1011.98 1012.50 1012.88 1013.00 1013.59 1014.32 1014.64 1014.90 1015.14 1015.38 1015.55 1015.70 1015.86 1015.94 1016.07 1016.14 1016.26 1016.36 1016.33 1016.32 1016.46 1016.60 1016.71 1016.83 1017.00 1017.17 1017.26 1017.33 1017.38 1017.49
1008.25 1008.34 1008.96 1008.00 1006.80 1005.24 1003.34 1002.21 1001.55 1001.12 1001.42 1002.00 1002.92 1003.85 1005.49 1007.80 1008.67 1009.73 1010.47 1011.96 1012.64 1012.48 1012.56 1013.83 1014.42 1014.80 1015.13 1015.34 1015.60 1015.81 1015.98 1016.13 1016.24 1016.35 1016.48 1016.56 1016.58 1016.54 1016.54 1016.65 1016.77 1016.86 1016.97 1017.10 1017.21 1017.30 1017.38 1017.47 1017.61
1008.14 1008.45 1008.24 1007.20 1005.64 1003.51 1002.24 1001.95 1000.45 1000.89 1001.39 1002.17 1003.26 1005.40 1007.17 1008.02 1008.65 1009.27 1010.97 1011.83 1012.44 1012.46 1012.53 1014.13 1014.51 1014.87 1015.18 1015.50 1015.80 1016.06 1016.28 1016.43 1016.56 1016.65 1016.76 1016.80 1016.83 1016.78 1016.80 1016.88 1016.97 1017.07 1017.16 1017.27 1017.39 1017.47 1017.52 1017.56 1017.66
1008.02 1007.82 1007.43 1006.31 1004.65 1001.92 1000.38 1000.17 1000.06 1000.21 1000.95 1002.36 1003.43 1006.20 1007.50 1008.40 1009.10 1010.23 1010.89 1011.85 1012.22 1012.67 1013.51 1014.09 1014.66 1014.99 1015.28 1015.67 1015.97 1016.29 1016.49 1016.72 1016.83 1016.90 1016.95 1016.96 1016.99 1017.02 1017.07 1017.11 1017.17 1017.23 1017.30 1017.42 1017.55 1017.65 1017.71 1017.77 1017.84
1008.21 1008.60 1007.71 1005.79 1003.01 999.92 999.33 998.97 999.41 1000.27 1001.14 1003.02 1004.92 1006.66 1008.36 1008.94 1009.42 1010.08 1010.91 1011.77 1012.06 1012.44 1013.09 1014.19 1014.94 1015.26 1015.51 1015.84 1016.17 1016.50 1016.70 1016.92 1017.06 1017.11 1017.15 1017.20 1017.24 1017.26 1017.31 1017.31 1017.31 1017.31 1017.39 1017.53 1017.64 1017.71 1017.74 1017.77 1017.84
1007.97 1007.46 1007.18 1004.61 1000.67 999.31 998.77 998.66 999.42 998.86 1000.31 1002.78 1004.65 1006.36 1008.74 1009.24 1009.94 1010.49 1011.24 1011.56 1011.97 1011.86 1012.97 1014.11 1014.82 1015.40 1015.75 1016.03 1016.38 1016.66 1016.85 1017.09 1017.20 1017.21 1017.32 1017.42 1017.59 1017.50 1017.50 1017.50 1017.54 1017.56 1017.58 1017.71 1017.78 1017.82 1017.86 1017.85 1017.84
1005.05 1003.70 1005.16 1002.97 1000.42 998.68 998.02 998.26 998.75 999.01 1000.57 1002.30 1004.09 1006.01 1007.85 1009.13 1009.68 1010.47 1010.91 1011.70 1011.33 1011.99 1013.19 1013.95 1014.67 1015.30 1015.70 1016.16 1016.58 1016.79 1016.99 1017.13 1017.27 1017.56 1017.73 1017.98 1017.88 1017.98 1017.78 1017.78 1017.81 1017.75 1017.65 1017.61 1017.83 1018.02 1018.13 1018.19 1018.23
1003.50 1004.43 1003.94 1002.57 1000.22 998.60 997.85 998.02 998.96 999.73 1000.59 1001.60 1003.29 1005.29 1007.66 1008.83 1009.69 1010.46 1010.88 1011.38 1011.33 1011.99 1013.00 1013.57 1014.31 1014.99 1015.50 1015.96 1016.61 1016.86 1017.06 1017.06 1017.45 1017.54 1017.48 1017.34 1017.50 1017.77 1017.95 1017.94 1017.78 1017.83 1017.78 1017.74 1017.88 1017.89 1017.86 1018.10 1018.52
1002.42 1004.55 1003.81 1001.20 1001.56 999.03 998.20 998.32 998.94 999.70 1000.63 1002.37 1004.52 1006.65 1008.14 1009.06 1009.65 1010.40 1011.00 1011.04 1011.22 1011.88 1012.60 1013.19 1013.68 1014.41 1015.19 1015.38 1016.48 1016.62 1016.76 1016.79 1017.15 1016.87 1017.14 1018.26 1017.62 1017.38 1017.33 1017.87 1017.83 1017.70 1017.79 1017.78 1017.69 1017.89 1018.37 1017.96 1017.80
1001.24 1002.56 1001.51 1000.14 999.86 998.68 998.16 998.09 998.42 999.38 1000.48 1002.36 1004.53 1006.33 1007.87 1008.84 1009.54 1010.49 1010.78 1010.84 1011.27 1011.48 1011.99 1012.69 1013.40 1014.03 1014.61 1015.02 1016.07 1016.05 1016.08 1016.10 1016.52 1016.82 1018.86 1017.08 1018.68 1017.40 1017.35 1017.57 1017.77 1017.73 1017.92 1017.95 1017.66 1017.58 1018.04 1017.54 1017.65
1000.04 1001.53 1000.87 999.88 998.66 998.19 999.55 999.21 998.37 999.03 1000.18 1001.95 1004.47 1005.95 1007.09 1008.39 1009.28 1009.75 1010.41 1010.47 1010.88 1010.88 1011.39 1012.11 1012.97 1013.81 1014.17 1014.78 1015.32 1015.22 1015.20 1015.54 1015.54 1016.13 1017.86 1019.33 1018.06 1017.36 1017.22 1017.63 1017.69 1017.76 1018.13 1018.07 1018.04 1018.04 1017.56 1017.34 1017.15
998.83 1000.50 1000.40 999.97 998.31 998.53 999.06 1000.74 999.89 999.39 1000.55 1002.08 1004.13 1005.65 1006.78 1007.87 1008.94 1009.74 1010.12 1010.42 1010.43 1010.48 1010.88 1011.68 1012.72 1013.49 1013.92 1014.40 1014.56 1014.60 1014.70 1014.84 1014.96 1015.37 1015.55 1016.68 1016.63 1017.28 1017.27 1017.69 1017.76 1017.50 1018.18 1018.54 1018.27 1017.84 1017.66 1017.79 1017.62
997.99 998.60 998.92 998.45 997.35 997.45 998.03 999.56 999.69 999.23 999.98 1001.93 1003.61 1005.00 1005.96 1006.70 1007.91 1008.66 1009.54 1010.03 1010.29 1010.16 1010.57 1011.49 1012.52 1013.26 1013.65 1014.19 1014.20 1014.56 1014.40 1014.76 1014.81 1015.06 1015.63 1016.24 1016.96 1017.28 1017.39 1017.26 1017.29 1017.60 1017.66 1017.80 1017.68 1017.61 1018.00 1017.96 1017.84
997.61 997.47 997.09 997.01 996.66 996.63 997.19 997.58 998.19 999.56 999.59 1001.38 1003.03 1004.26 1005.31 1005.85 1006.59 1007.37 1008.11 1008.91 1009.73 1009.91 1010.27 1011.21 1012.27 1013.16 1013.79 1014.26 1014.46 1014.62 1014.56 1014.65 1014.83 1015.20 1015.84 1016.17 1016.57 1016.80 1017.04 1016.99 1017.21 1017.40 1017.38 1017.32 1017.55 1017.54 1017.88 1017.95 1017.67
997.29 997.22 996.44 996.02 996.06 996.24 996.59 996.50 996.96 998.11 998.90 1000.65 1002.29 1003.42 1004.47 1005.11 1005.54 1006.29 1006.92 1007.80 1008.74 1009.38 1010.11 1011.01 1011.76 1012.83 1013.78 1014.31 1014.64 1014.80 1014.77 1014.66 1014.63 1014.90 1015.51 1016.15 1016.52 1016.70 1016.69 1017.03 1017.44 1017.03 1017.24 1017.25 1017.43 1017.74 1018.02 1017.93 1017.87
996.69 996.23 995.82 995.35 995.42 995.75 995.99 995.75 996.26 997.18 997.73 999.21 1001.17 1002.58 1003.61 1004.50 1004.94 1005.57 1006.19 1007.01 1007.82 1008.80 1009.80 1010.79 1011.52 1012.43 1013.47 1014.24 1014.50 1014.94 1014.76 1014.63 1014.54 1014.63 1015.09 1015.79 1016.29 1016.50 1016.62 1017.02 1017.24 1017.11 1016.96 1017.39 1017.33 1017.44 1017.59 1017.86 1017.59
996.04 996.00 995.30 994.87 994.60 995.04 994.97 995.16 995.33 996.52 997.20 998.19 999.45 1001.31 1002.63 1003.50 1004.13 1004.98 1005.74 1006.56 1007.46 1008.42 1009.55 1010.50 1011.39 1012.27 1013.12 1013.96 1014.54 1014.65 1014.63 1014.46 1014.49 1014.50 1014.66 1015.38 1015.75 1016.09 1016.48 1016.95 1016.92 1016.97 1017.09 1017.34 1017.40 1017.59 1017.59 1017.69 1017.84
995.97 995.45 994.76 994.00 993.85 993.83 994.23 994.35 995.33 995.84 998.04 997.46 998.23 999.50 1001.35 1002.42 1003.51 1004.54 1005.50 1006.33 1007.15 1008.22 1009.35 1010.29 1011.22 1012.05 1012.85 1013.55 1014.11 1014.28 1014.40 1014.38 1014.59 1014.46 1014.55 1015.04 1015.35 1015.78 1016.10 1016.74 1017.29 1016.83 1017.15 1017.40 1017.45 1017.72 1017.89 1018.11 1017.88
995.85 994.88 993.88 993.41 992.77 993.40 993.45 993.55 994.01 994.67 995.99 996.67 997.19 998.35 999.86 1001.41 1002.45 1003.55 1004.72 1005.61 1006.55 1007.68 1008.89 1010.04 1010.94 1011.79 1012.40 1013.02 1013.61 1013.88 1013.85 1013.97 1014.24 1014.35 1014.38 1014.65 1015.12 1015.55 1015.97 1016.37 1016.69 1016.81 1016.93 1017.44 1017.56 1017.71 1018.08 1017.95 1017.89
995.05 994.60 993.79 992.96 992.57 992.78 993.59 993.43 993.30 993.78 994.61 995.58 996.15 997.22 998.48 1000.06 1001.32 1002.68 1003.79 1004.60 1005.83 1007.02 1008.19 1009.40 1010.41 1011.26 1011.97 1012.57 1013.18 1013.53 1013.68 1013.72 1013.91 1014.14 1014.46 1014.61 1014.95 1015.38 1015.83 1016.26 1016.52 1016.65 1017.06 1017.58 1017.75 1017.65 1017.83 1018.03 1017.97
994.22 994.51 994.05 993.22 992.49 992.17 992.97 992.48 992.86 993.01 993.35 994.11 995.26 996.13 997.29 998.61 1000.29 1001.72 1003.08 1004.23 1005.02 1006.26 1007.64 1008.79 1009.83 1010.79 1011.55 1012.15 1012.62 1012.97 1013.22 1013.31 1013.45 1013.74 1014.12 1014.44 1014.70 1015.03 1015.26 1015.88 1016.15 1016.38 1016.58 1017.14 1017.40 1017.45 1017.70 1017.96 1018.05
993.67 993.76 994.07 993.72 992.99 992.56 991.82 991.90 991.64 992.37 992.50 993.06 993.94 994.69 996.08 997.08 998.79 1000.44 1001.83 1003.29 1004.29 1005.49 1006.76 1007.96 1009.09 1010.13 1010.97 1011.75 1012.12 1012.53 1012.85 1013.00 1013.15 1013.29 1013.65 1013.93 1014.43 1014.59 1014.82 1015.40 1015.69 1016.20 1016.54 1017.00 1017.21 1017.42 1017.63 1017.84 1018.05
993.55 993.55 993.53 993.88 993.59 992.35 992.04 991.65 990.98 990.88 991.50 991.91 992.46 993.49 994.65 995.88 997.31 999.08 1000.73 1002.44 1003.77 1004.80 1006.06 1007.41 1008.57 1009.51 1010.37 1011.19 1011.70 1011.96 1012.24 1012.61 1012.75 1012.97 1013.14 1013.41 1013.88 1014.39 1014.50 1014.88 1015.37 1015.75 1016.22 1016.65 1016.92 1017.16 1017.47 1017.79 1017.86
992.74 992.99 992.79 992.68 992.37 991.77 992.64 991.69 990.41 990.09 990.06 990.58 991.06 992.20 993.49 994.61 996.01 997.68 999.63 1000.92 1002.53 1003.68 1004.95 1006.37 1007.68 1008.75 1009.55 1010.21 1010.89 1011.37 1011.61 1012.18 1012.30 1012.36 1012.74 1012.94 1013.27 1013.67 1014.08 1014.48 1015.09 1015.64 1015.93 1016.14 1016.22 1016.85 1017.22 1017.60 1017.83
991.39 991.75 991.31 991.42 991.60 992.05 992.34 990.44 989.89 990.44 989.80 989.39 989.57 990.74 992.13 993.39 994.56 996.18 998.13 999.78 1001.31 1002.72 1004.01 1005.15 1006.39 1007.56 1008.45 1009.21 1010.02 1010.70 1011.22 1011.44 1011.82 1011.93 1011.97 1012.41 1012.51 1012.81 1013.03 1013.72 1014.23 1014.75 1015.31 1015.76 1015.87 1016.55 1017.09 1017.41 1017.67
990.54 990.43 991.53 991.55 991.48 991.05 990.39 990.19 989.94 989.62 989.43 989.09 989.08 989.65 990.72 991.92 993.23 994.87 996.73 998.62 1000.12 1001.56 1002.89 1004.04 1005.36 1006.56 1007.43 1008.33 1009.17 1009.94 1010.58 1010.70 1010.99 1011.39 1011.55 1011.79 1012.04 1012.07 1012.30 1013.08 1013.72 1014.32 1014.76 1015.17 1015.77 1016.15 1016.59 1016.79 1017.20
989.15 990.78 991.30 991.10 990.43 989.57 988.80 987.90 987.37 988.02 988.12 988.57 988.70 988.94 989.64 990.84 992.15 993.66 995.50 997.29 999.04 1000.16 1001.49 1003.12 1004.26 1005.42 1006.19 1007.14 1007.94 1008.52 1009.12 1009.69 1010.20 1010.62 1011.00 1011.30 1011.49 1011.75 1011.99 1012.53 1013.15 1013.79 1014.35 1014.82 1015.35 1015.66 1016.00 1016.47 1016.73
988.80 989.11 990.32 990.79 990.22 989.05 987.84 986.48 985.42 985.91 986.81 987.46 987.98 988.72 989.11 990.02 991.25 992.65 994.46 996.01 997.58 999.17 1000.52 1001.89 1003.33 1004.57 1005.61 1006.12 1006.65 1007.37 1008.13 1009.05 1009.62 1009.91 1010.29 1010.66 1011.14 1011.43 1011.67 1012.38 1012.79 1013.17 1013.64 1014.26 1014.73 1015.08 1015.33 1015.73 1016.08
988.29 988.66 989.06 989.29 989.49 988.87 987.77 986.35 985.88 985.28 986.05 986.90 987.59 988.13 989.06 989.77 990.75 991.82 993.19 994.89 996.52 998.03 999.35 1000.50 1001.96 1003.12 1004.27 1005.30 1006.14 1006.88 1007.50 1007.96 1008.62 1009.26 1009.59 1010.00 1010.41 1010.82 1011.18 1011.61 1012.10 1012.48 1012.92 1013.39 1013.92 1014.30 1014.48 1014.70 1015.11
Thickness
5793 5791 5789 5778 5759 5767 5756 5777 5791 5792 5812 5833 5823 5804 5790 5804 5790 5766 5787 5785 5779 5772 5770 5768 5765 5761 5759 5758 5756 5756 5756 5755 5756 5755 5754 5753 5753 5754 5755 5755 5755 5754 5753 5752 5751 5750 5749 5748 5747
5800 5795 5786 5776 5756 5753 5772 5808 5802 5819 5831 5835 5824 5816 5807 5784 5805 5786 5784 5784 5781 5777 5776 5771 5765 5760 5759 5758 5757 5756 5755 5755 5756 5755 5754 5753 5754 5755 5756 5756 5755 5755 5754 5754 5752 5751 5750 5749 5748
5802 5801 5773 5771 5766 5762 5791 5819 5822 5834 5839 5833 5823 5828 5814 5785 5796 5790 5795 5784 5779 5781 5779 5769 5765 5761 5759 5758 5756 5756 5755 5755 5755 5754 5753 5753 5754 5756 5757 5757 5756 5756 5755 5754 5753 5752 5751 5750 5747
5794 5788 5787 5761 5762 5805 5813 5801 5838 5832 5836 5837 5828 5798 5804 5808 5799 5802 5793 5787 5781 5781 5780 5768 5766 5763 5762 5759 5757 5756 5755 5754 5754 5754 5753 5754 5755 5757 5757 5757 5757 5756 5755 5754 5753 5752 5752 5750 5748
5793 5787 5764 5766 5778 5818 5839 5842 5844 5835 5834 5828 5828 5791 5791 5803 5806 5798 5793 5786 5782 5779 5773 5769 5765 5764 5763 5760 5757 5756 5755 5754 5753 5753 5754 5755 5756 5757 5757 5757 5757 5757 5756 5755 5754 5753 5752 5750 5748
5772 5767 5749 5759 5786 5840 5850 5857 5849 5836 5834 5824 5807 5792 5785 5803 5801 5799 5795 5787 5786 5781 5778 5769 5764 5763 5763 5761 5758 5756 5755 5754 5752 5752 5754 5755 5756 5757 5758 5759 5759 5759 5758 5756 5754 5754 5753 5751 5749
5757 5759 5749 5782 5824 5834 5844 5860 5840 5849 5839 5819 5820 5793 5786 5793 5798 5796 5792 5792 5788 5787 5779 5771 5766 5762 5762 5761 5758 5756 5755 5752 5753 5756 5756 5756 5754 5757 5759 5759 5759 5758 5757 5755 5754 5753 5753 5753 5752
5801 5774 5757 5785 5825 5826 5856 5858 5858 5852 5834 5845 5830 5794 5784 5795 5802 5797 5796 5789 5793 5788 5778 5774 5768 5764 5763 5761 5758 5757 5754 5755 5758 5756 5755 5753 5755 5753 5757 5759 5758 5760 5761 5760 5758 5755 5752 5751 5751
5827 5776 5775 5796 5824 5834 5861 5849 5858 5859 5842 5843 5835 5817 5805 5806 5803 5794 5792 5789 5790 5788 5782 5778 5773 5768 5766 5764 5759 5757 5757 5762 5759 5758 5758 5763 5762 5756 5756 5758 5762 5762 5762 5762 5762 5762 5760 5754 5751
5815 5764 5776 5819 5813 5832 5854 5851 5847 5841 5834 5825 5815 5811 5806 5802 5798 5788 5783 5785 5788 5785 5785 5784 5780 5775 5771 5770 5763 5762 5763 5767 5762 5768 5766 5756 5761 5764 5763 5761 5762 5765 5766 5765 5767 5765 5759 5759 5759
5826 5798 5821 5834 5840 5860 5856 5853 5859 5841 5824 5825 5807 5804 5803 5799 5796 5788 5788 5791 5788 5791 5791 5789 5786 5782 5777 5776 5769 5770 5772 5774 5770 5771 5755 5744 5754 5766 5766 5768 5764 5767 5768 5767 5769 5772 5765 5766 5764
5823 5814 5829 5843 5852 5861 5832 5840 5852 5849 5838 5841 5822 5815 5809 5800 5795 5795 5791 5794 5793 5797 5797 5796 5791 5787 5783 5781 5778 5780 5782 5780 5780 5779 5758 5746 5761 5775 5771 5767 5768 5769 5767 5768 5770 5769 5770 5770 5770
5833 5815 5830 5836 5855 5853 5846 5823 5834 5844 5849 5845 5829 5817 5809 5805 5800 5798 5799 5799 5800 5801 5802 5800 5796 5791 5788 5787 5787 5788 5787 5787 5787 5787 5788 5782 5784 5776 5775 5772 5771 5773 5770 5765 5768 5769 5768 5764 5767
5849 5843 5839 5845 5866 5867 5852 5833 5837 5849 5857 5839 5827 5817 5814 5812 5807 5805 5801 5798 5799 5806 5806 5804 5798 5795 5791 5790 5790 5791 5792 5790 5789 5788 5786 5781 5777 5774 5774 5776 5776 5774 5773 5772 5771 5770 5766 5767 5767
5848 5834 5849 5854 5864 5863 5868 5849 5843 5844 5856 5836 5826 5821 5817 5817 5816 5811 5812 5808 5805 5808 5810 5806 5801 5797 5793 5790 5790 5791 5794 5795 5794 5791 5785 5782 5780 5781 5782 5782 5780 5777 5776 5775 5772 5774 5771 5769 5770
5828 5831 5816 5852 5861 5864 5860 5828 5861 5861 5855 5837 5829 5824 5819 5819 5821 5820 5821 5819 5817 5815 5810 5809 5808 5801 5794 5791 5789 5790 5794 5797 5799 5798 5793 5788 5785 5785 5786 5784 5782 5784 5781 5779 5777 5775 5771 5770 5770
5820 5800 5816 5836 5862 5856 5853 5839 5866 5868 5856 5846 5835 5828 5823 5820 5823 5824 5825 5824 5822 5819 5813 5809 5809 5804 5797 5792 5791 5790 5795 5798 5801 5801 5799 5794 5790 5788 5788 5786 5786 5783 5784 5780 5780 5778 5775 5769 5771
5798 5803 5823 5825 5855 5855 5851 5849 5865 5868 5859 5846 5848 5836 5827 5823 5824 5826 5825 5826 5824 5821 5816 5813 5810 5806 5801 5796 5793 5794 5797 5800 5802 5803 5803 5799 5796 5793 5790 5787 5787 5786 5786 5783 5782 5778 5776 5772 5768
5820 5819 5821 5847 5866 5857 5851 5856 5853 5867 5834 5850 5851 5847 5834 5830 5833 5830 5826 5825 5824 5822 5815 5813 5809 5806 5803 5799 5794 5795 5795 5800 5802 5804 5804 5802 5801 5798 5796 5791 5786 5788 5786 5784 5784 5779 5774 5768 5770
5814 5815 5828 5853 5875 5860 5859 5858 5870 5870 5858 5853 5853 5853 5845 5836 5835 5832 5829 5829 5827 5822 5817 5812 5810 5808 5806 5804 5801 5801 5803 5806 5806 5806 5807 5806 5803 5800 5798 5794 5793 5791 5789 5785 5784 5781 5773 5773 5772
5809 5809 5823 5840 5865 5869 5851 5843 5862 5876 5872 5873 5870 5865 5859 5846 5838 5834 5832 5834 5831 5826 5822 5816 5813 5811 5808 5807 5805 5805 5807 5808 5807 5807 5807 5807 5804 5802 5800 5796 5794 5793 5791 5784 5783 5783 5779 5771 5774
5794 5825 5829 5837 5845 5826 5857 5815 5847 5867 5871 5867 5870 5866 5862 5857 5850 5842 5837 5833 5835 5832 5828 5822 5818 5814 5812 5811 5808 5805 5802 5802 5809 5811 5811 5809 5807 5806 5804 5800 5797 5796 5795 5790 5788 5788 5784 5778 5770
5807 5831 5822 5827 5830 5836 5845 5831 5852 5864 5857 5866 5871 5874 5867 5869 5859 5848 5845 5839 5841 5839 5834 5829 5823 5818 5816 5812 5811 5808 5806 5811 5814 5816 5813 5814 5812 5810 5808 5805 5803 5800 5798 5794 5791 5788 5785 5782 5776
5829 5818 5822 5821 5817 5793 5824 5832 5837 5854 5858 5874 5882 5880 5876 5874 5870 5861 5854 5848 5842 5844 5839 5834 5826 5822 5821 5816 5814 5814 5812 5812 5813 5815 5816 5817 5816 5813 5812 5809 5806 5803 5800 5796 5793 5791 5788 5784 5782
5815 5801 5774 5772 5777 5774 5822 5817 5836 5874 5888 5885 5885 5883 5883 5883 5874 5867 5855 5853 5848 5846 5844 5839 5832 5825 5825 5823 5820 5818 5819 5817 5817 5819 5818 5819 5818 5817 5815 5814 5809 5805 5802 5800 5798 5793 5790 5787 5784
5808 5807 5784 5752 5768 5785 5818 5803 5833 5872 5892 5908 5912 5899 5893 5887 5883 5875 5866 5861 5855 5851 5847 5845 5839 5833 5833 5831 5827 5825 5824 5824 5823 5825 5826 5823 5824 5824 5825 5819 5816 5811 5806 5802 5800 5796 5791 5788 5786
5805 5796 5825 5803 5816 5803 5821 5832 5857 5873 5876 5891 5902 5907 5896 5894 5890 5881 5876 5868 5862 5857 5853 5851 5845 5839 5839 5836 5833 5830 5828 5829 5828 5827 5829 5828 5827 5830 5830 5824 5818 5813 5810 5806 5802 5798 5794 5793 5790
5821 5827 5788 5801 5774 5785 5821 5836 5835 5854 5866 5879 5887 5898 5903 5902 5896 5890 5884 5875 5870 5868 5864 5857 5853 5847 5846 5843 5840 5839 5838 5837 5834 5833 5830 5828 5829 5829 5829 5824 5820 5814 5810 5808 5803 5800 5798 5793 5792
5804 5804 5803 5811 5812 5799 5809 5841 5897 5877 5880 5879 5888 5894 5904 5904 5899 5894 5888 5886 5880 5874 5867 5863 5857 5852 5849 5850 5848 5846 5843 5838 5836 5834 5832 5830 5828 5827 5827 5823 5819 5816 5813 5810 5806 5803 5801 5797 5795
5818 5810 5813 5790 5787 5819 5829 5846 5893 5899 5895 5891 5888 5894 5900 5905 5902 5900 5896 5890 5883 5878 5874 5870 5865 5861 5857 5853 5849 5846 5845 5844 5839 5834 5834 5832 5829 5828 5826 5824 5821 5819 5816 5814 5809 5806 5806 5804 5801